Weather History for CYRB - April, 2013

Change the Weather History Date:

Wednesday, April 24, 2013

  Actual Average Record
Temperature  
Mean Temperature -4 °F -  
Max Temperature 3 °F 3 °F 30 °F (1997)
Min Temperature -12 °F -3 °F -16 °F (2011)
Degree Days  
Heating Degree Days 70    
Moisture  
Dew Point -10 °F    
Average Humidity 69    
Maximum Humidity 78    
Minimum Humidity 58    
Precipitation  
Precipitation 0.00 in - - ()
Sea Level Pressure  
Sea Level Pressure 29.82 in    
Wind  
Wind Speed 17 mph ()    
Max Wind Speed 25 mph    
Max Gust Speed 29 mph    
Visibility 6.0 miles    
Events Snow    
Averages and records for this station are not official NWS values.
T = Trace of Precipitation, MM = Missing Value Source: Averaged Metar Reports

Daily Weather History Graph

Daily Weather History Graph

Search for Another Location

Airport or City:

Trip Planner

Search our weather history database for the weather conditions in past years. The results will help you decide how hot, cold, wet, or windy it might be!

Date:

Astronomy

Apr. 24, 2013 Rise Set
Actual Time 3:02 AM CDT 11:44 PM CDT
Civil Twilight Sun does not rise Sun does not rise
Nautical Twilight Sun does not rise Sun does not rise
Astronomical Twilight Sun does not rise Sun does not rise
Moon 10:01 PM CDT (4/24) 3:44 AM CDT (4/24)
Length of Visible Light 24h 00m
Length of Day
20h 42m
Waxing Gibbous, 98% of the Moon is Illuminated
Apr 24
Waxing Gibbous
Apr 25
Full
May 2
Last Quarter
May 9
New
May 17
First Quarter

Hourly Weather History & Observations

Time (CDT) Temp. Windchill Dew Point Humidity Pressure Visibility Wind Dir Wind Speed Gust Speed Precip Events Conditions
12:00 AM -7.6 °F -28.3 °F -16.6 °F 65% 29.93 in 15.0 mi ENE 13.8 mph - N/A   Scattered Clouds
1:00 AM -11.2 °F -32.1 °F -18.4 °F 70% 29.92 in 15.0 mi NE 12.7 mph - N/A   Partly Cloudy
3:00 AM -13.0 °F -38.2 °F -22.0 °F 64% 29.89 in 15.0 mi East 18.4 mph - N/A Snow Low Drifting Snow
4:00 AM -11.2 °F -36.4 °F -22.0 °F 59% 29.88 in 15.0 mi NE 19.6 mph - N/A Snow Low Drifting Snow
5:00 AM -7.6 °F -32.9 °F -16.6 °F 65% 29.86 in 15.0 mi East 21.9 mph - N/A Snow Low Drifting Snow
6:00 AM -7.6 °F -32.3 °F -14.8 °F 71% 29.86 in 15.0 mi East 20.7 mph - N/A Snow Low Drifting Snow
6:37 AM - - - N/A% - 4.0 mi East 19.6 mph - N/A   Unknown
7:00 AM -6 °F - -13 °F 58% 29.84 in 4 mi East 21.9 mph - - Snow Light Snow
7:00 AM -5.8 °F -30.5 °F -13.0 °F 71% 29.84 in 4.0 mi East 21.9 mph - N/A Snow Light Snow
7:34 AM - - - N/A% - 1.0 mi East 23.0 mph - N/A   Unknown
8:00 AM -4.0 °F -28.6 °F -11.2 °F 71% 29.82 in 1.0 mi East 23.0 mph - N/A Snow Light Snow
8:42 AM - - - N/A% - 0.8 mi East 23.0 mph - N/A   Unknown
9:00 AM -2.2 °F -23.5 °F -9.4 °F 71% 29.81 in 0.8 mi ESE 17.3 mph 23.0 mph N/A Snow Light Snow
10:00 AM -2.2 °F -26.7 °F -9.4 °F 71% 29.80 in 0.8 mi East 24.2 mph - N/A Snow Light Snow
10:28 AM - - - N/A% - 0.5 mi East 23.0 mph - N/A   Unknown
11:00 AM -0.4 °F -23.8 °F -7.6 °F 72% 29.78 in 0.5 mi ESE 23.0 mph 28.8 mph N/A Snow Light Snow
11:35 AM - - - N/A% - 0.5 mi ESE 25.3 mph - N/A   Unknown
12:00 PM 1.4 °F -21.4 °F -5.8 °F 72% 29.79 in 0.5 mi ESE 23.0 mph 28.8 mph N/A Snow Light Snow
12:42 PM - - - N/A% - 0.5 mi SE 25.3 mph - N/A   Ice Crystals
1:00 PM 1 °F - -4 °F 68% 29.78 in 0 mi SE 20.7 mph - - Snow Snow
1:00 PM 1.4 °F -20.5 °F -4.0 °F 78% 29.78 in 0.5 mi SE 20.7 mph 26.5 mph N/A Snow Ice Crystals
1:47 PM - - - N/A% - 1.0 mi SE 20.7 mph - N/A   Ice Crystals
2:00 PM 1.4 °F -21.0 °F -4.0 °F 78% 29.78 in 0.8 mi SE 21.9 mph - N/A Snow Ice Crystals
2:37 PM - - - N/A% - 0.5 mi SE 20.7 mph - N/A   Ice Crystals
3:00 PM 3.2 °F -16.5 °F -4.0 °F 72% 29.79 in 0.5 mi SE 17.3 mph 23.0 mph N/A Snow Ice Crystals
3:35 PM - - - N/A% - 7.0 mi SE 15.0 mph - N/A   Mostly Cloudy
4:00 PM 3.2 °F -15.3 °F -4.0 °F 72% 29.79 in 8.0 mi SE 15.0 mph - N/A Snow Mostly Cloudy
4:20 PM - - - N/A% - 2.0 mi SE 18.4 mph - N/A   Ice Crystals
4:26 PM - - - N/A% - 1.5 mi SE 18.4 mph - N/A   Ice Crystals
4:31 PM - - - N/A% - 1.0 mi SE 17.3 mph - N/A   Unknown
4:37 PM - - - N/A% - 2.0 mi ESE 18.4 mph - N/A   Unknown
5:00 PM 3.2 °F -16.5 °F -4.0 °F 72% 29.79 in 2.0 mi ESE 17.3 mph - N/A Snow Light Snow
5:33 PM - - - N/A% - 8.0 mi SE 15.0 mph - N/A   Unknown
6:00 PM 1.4 °F -15.3 °F -4.0 °F 78% 29.79 in 15.0 mi SE 11.5 mph - N/A   Partly Cloudy
7:00 PM 0 °F - -7 °F 61% 29.79 in 15 mi ESE 9.2 mph - - Snow Snow
7:00 PM 1.4 °F -13.5 °F -5.8 °F 72% 29.79 in 15.0 mi ESE 9.2 mph - N/A   Partly Cloudy
8:00 PM -0.4 °F -17.6 °F -9.4 °F 66% 29.79 in 15.0 mi ESE 11.5 mph - N/A   Partly Cloudy
10:00 PM -2.2 °F -20.7 °F -11.2 °F 66% 29.79 in 15.0 mi East 12.7 mph - N/A   Partly Cloudy
11:00 PM -4.0 °F -24.5 °F -11.2 °F 71% 29.80 in 15.0 mi ESE 15.0 mph - N/A   Partly Cloudy